# Land Stadt Wetter Temperatur Luftdruck Luftfeuchtigkeit Sichtweite Windgeschwindigkeit Windrichtung Ortszeit
1 ae Dubai Dust 40 996 33 500 17 290 02.08.2018 14:21
2 in Mumbai Clouds 28 1006 83 1000 30 220 02.08.2018 14:22
3 iq Bagdad Dust 39 1000 24 1000 22 330 02.08.2018 14:22
4 ar Esquel Snow -1 1001 90 2294 17 0 02.08.2018 14:22
5 in Nagpur Rain 25 1003 94 2500 15 270 02.08.2018 14:21
6 kr Seoul Clouds 30 1005 75 3000 11 280 02.08.2018 14:21
7 ar Ushuaia Clouds 1 975 93 6000 19 240 02.08.2018 14:22
8 ma Casablanca Clouds 24 1013 81 6000 15 40 02.08.2018 14:23
9 no Hammerfest Rain 9 1013 87 7000 52 240 02.08.2018 14:22
10 ma Marrakesch Clouds 26 1015 69 8000 9 270 02.08.2018 14:23
11 qa Doha Clouds 40 997 31 9000 17 130 02.08.2018 14:23
12 gb Glasgow Clouds 18 1011 87 9000 11 90 02.08.2018 14:21
13 de Torfhaus Clouds 22 1012 61 10000 14 122 02.08.2018 14:22
14 gr Athen Clouds 31 1005 41 10000 13 292 02.08.2018 14:22
15 es Palma de Mallorca Clear 35 1008 38 10000 15 220 02.08.2018 14:22
16 is Reykjavik Clouds 9 1007 87 10000 0 0 02.08.2018 14:22
17 it Palermo Clear 29 996 60 10000 2 332 02.08.2018 14:22
18 at Wien Clouds 22 1011 73 10000 17 340 02.08.2018 14:22
19 ke Nairobi Clouds 17 1023 72 10000 9 180 02.08.2018 14:22
20 es Sevilla Clear 27 1011 48 10000 7 20 02.08.2018 14:22
21 fr Paris Clear 26 1006 47 10000 20 250 02.08.2018 14:22
22 cn Lhasa Clouds 23 1001 33 10000 5 129 02.08.2018 14:22
23 sb Honiara Clouds 26 1012 85 10000 5 139 02.08.2018 14:22
24 za Kapstadt Rain 14 1022 69 10000 20 180 02.08.2018 14:22
25 us Death Valley Clouds 35 1011 32 10000 10 161 02.08.2018 14:22
26 pt Lissabon Clouds 22 1015 66 10000 20 330 02.08.2018 14:22
27 gl Nuuk Rain 9 1012 93 10000 43 180 02.08.2018 14:22
28 ru Werchojansk Clouds 17 1009 55 10000 3 60 02.08.2018 14:22
29 in Jagatsukh Clouds 26 1010 76 10000 12 202 02.08.2018 14:22
30 bo Potisi Clouds 3 1017 39 10000 6 281 02.08.2018 14:22
31 eg Kairo Clear 30 1008 45 10000 9 340 02.08.2018 14:22
32 ru Moskau Clear 27 1020 49 10000 8 130 02.08.2018 14:22
33 de Helgoland Clouds 20 1013 79 10000 17 92 02.08.2018 14:22
34 jp Tokio Clouds 32 1004 62 10000 28 180 02.08.2018 14:22
35 br Rio de Janeiro Clear 17 1020 84 10000 7 310 02.08.2018 14:22
36 es Barcelona Clear 32 1008 37 10000 22 280 02.08.2018 14:22
37 ca Montreal Clear 14 1018 85 10000 7 240 02.08.2018 14:22
38 id Jakarta Clouds 32 1007 60 10000 20 18 02.08.2018 14:22
39 cl Santiago Clear 7 1027 65 10000 2 17 02.08.2018 14:23
40 us Chicago Clear 21 1012 78 10000 3 234 02.08.2018 14:23
41 at Innsbruck Clear 20 1013 56 10000 9 280 02.08.2018 14:23
42 ch Bern Clear 22 1012 48 10000 9 310 02.08.2018 14:23
43 ch Andermatt Clouds 20 1012 51 10000 3 186 02.08.2018 14:23
44 it Rom Clear 27 1010 46 10000 15 60 02.08.2018 14:23
45 tr Ankara Clouds 30 1005 33 10000 6 0 02.08.2018 14:23
46 tr Istanbul Clouds 28 1006 65 10000 9 160 02.08.2018 14:23
47 et Addis Abeba Clouds 18 1024 77 10000 11 150 02.08.2018 14:23
48 ru Amderma Clouds 8 1010 68 10000 35 306 02.08.2018 14:23
49 ru Surgut Clouds 15 1004 62 10000 36 300 02.08.2018 14:23
50 mn Ulaanbaatar Clouds 20 1009 56 10000 11 360 02.08.2018 14:23
51 pe Cusco Clouds 8 1020 82 10000 3 263 02.08.2018 14:23
52 cd Kisangani Clouds 24 1013 82 10000 4 34 02.08.2018 14:23
53 nz Wellington Clouds 11 1022 77 10000 30 350 02.08.2018 14:23
54 au Darwin Clear 27 1011 70 10000 15 310 02.08.2018 14:22
55 uy Montevideo Clear 13 1015 80 10000 13 60 02.08.2018 14:22
56 ru Jakutsk Clouds 22 1002 68 10000 11 70 02.08.2018 14:22
57 es Madrid Clear 22 1014 52 10000 9 210 02.08.2018 14:23
58 us Miami Clouds 26 1015 79 10000 0 0 02.08.2018 14:23
59 us Nome Clear 7 1005 71 10000 19 350 02.08.2018 14:23
60 us Fairbanks Clear 16 999 85 10000 6 80 02.08.2018 14:23
61 cn Peking Clouds 24 999 98 10000 2 210 02.08.2018 14:23
62 mv Male Clouds 31 1009 74 10000 13 360 02.08.2018 14:23
63 no Oslo Clear 21 1016 1 10000 8 181 02.08.2018 14:23
64 se Stockholm Clouds 24 1017 57 10000 9 150 02.08.2018 14:23
65 ru Anadyr Clear 8 1016 76 10000 22 150 02.08.2018 14:23
66 mn Uliastai Clouds 20 1008 34 10000 21 291 02.08.2018 14:23
67 ck Avarua Clouds 22 1016 73 10000 9 150 02.08.2018 14:22
68 sa Riad Clouds 41 999 8 10000 22 38 02.08.2018 14:21
69 br Manaus Clear 25 1013 94 10000 4 250 02.08.2018 14:21
70 do Santo Domingo Clouds 26 1015 81 10000 5 1 02.08.2018 14:21
71 es Tarifa Clouds 28 1013 66 10000 21 260 02.08.2018 14:21
72 de Braunschweig Clear 27 1011 47 10000 15 120 02.08.2018 14:21
73 de Köln Clear 26 1010 52 10000 11 120 02.08.2018 14:21
74 fr Bordeaux Clouds 22 1011 83 10000 13 300 02.08.2018 14:21
75 ph Manila Clouds 30 1004 75 10000 9 260 02.08.2018 14:21
76 de Berlin Clear 27 1011 65 10000 10 41 02.08.2018 14:21
77 fj Suva Clouds 23 1016 68 10000 19 110 02.08.2018 14:21
78 au Alice Springs Clear 23 1016 12 10000 11 210 02.08.2018 14:21
79 de Hamburg Clear 25 1013 58 10000 13 90 02.08.2018 14:21
80 de München Clear 23 1011 48 10000 16 128 02.08.2018 14:21
81 de Trier Clouds 28 1009 30 10000 12 114 02.08.2018 14:21
82 th Bangkok Clouds 32 1006 57 10000 12 185 02.08.2018 14:21
83 af Kabul Clouds 30 1003 38 10000 16 75 02.08.2018 14:21
84 es Las Palmas de Gran Canaria Clouds 24 1018 80 10000 18 19 02.08.2018 14:21
85 ie Dublin Clear 22 1009 75 10000 9 50 02.08.2018 14:21
86 mx Mexiko Stadt Clouds 16 1020 85 10000 2 169 02.08.2018 14:21
87 fi Helsinki Clouds 22 1020 71 10000 11 90 02.08.2018 14:21
88 ua Kiew Clouds 28 1002 63 10000 2 304 02.08.2018 14:21
89 de Kassel Clear 26 1012 53 10000 13 120 02.08.2018 14:21
90 us Las Vegas Clouds 28 1014 59 10000 11 170 02.08.2018 14:21
91 us Tucson Clear 24 1016 74 10000 17 140 02.08.2018 14:21
92 mx Veracruz Clouds 24 1010 82 10000 2 217 02.08.2018 14:21
93 de Nürnberg Clear 25 1011 59 10000 13 110 02.08.2018 14:21
94 de Hannover Clouds 27 1011 58 10000 13 140 02.08.2018 14:21
95 de Oberstdorf Clouds 22 1011 40 10000 6 195 02.08.2018 14:21
96 us Denver Clouds 21 1015 59 10000 3 190 02.08.2018 14:21
97 mg Antananarivo Clouds 19 1024 56 10000 20 120 02.08.2018 14:21
98 jp Nagasaki Clouds 31 1009 74 10000 20 230 02.08.2018 14:21
99 bg Warna Clouds 29 1005 74 10000 9 0 02.08.2018 14:21
100 de Bremen Clear 26 1012 63 10000 15 120 02.08.2018 14:22
101 us Honolulu Clouds 26 1017 71 10000 20 60 02.08.2018 14:22
102 bs Nassau Clouds 28 1014 69 10000 11 130 02.08.2018 14:22
103 de Stuttgart Clear 27 1010 42 10000 11 90 02.08.2018 14:22
104 ec San Cristobal Clouds 21 1014 88 10000 22 174 02.08.2018 14:22
105 bo La Paz Clouds -1 1037 80 10000 4 0 02.08.2018 14:22
106 de Magdeburg Clouds 26 1007 60 10000 10 107 02.08.2018 14:22
107 tr Alanya Clear 28 1007 42 10000 27 303 02.08.2018 14:22
108 us Los Angeles Clear 21 1014 69 10000 7 250 02.08.2018 14:22
109 gb London Clouds 26 1007 50 10000 9 110 02.08.2018 14:22
110 au Sydney Clear 13 1009 59 10000 11 265 02.08.2018 14:22
111 us New York Clear 19 1018 60 10000 6 290 02.08.2018 14:22
112 fr Nizza Clouds 28 1010 51 10000 7 106 02.08.2018 14:22
113 de Frankfurt Clear 27 1008 49 10000 13 70 02.08.2018 14:22
114 de Dresden Clear 26 1001 63 10000 6 60 02.08.2018 14:22
115 bg Sofia Clouds 19 1013 82 10000 7 340 02.08.2018 14:21
116 fi Rovaniemi Clouds 17 1018 55 10000 11 230 02.08.2018 14:21
117 gb Manchester Clouds 24 1009 51 10000 2 0 02.08.2018 14:21
118 de Flensburg Clouds 26 1013 59 10000 22 89 02.08.2018 14:21
119 de Hiddensee Clouds 28 1015 76 10000 24 86 02.08.2018 14:21
120 de Emden Clouds 27 1011 64 10000 18 114 02.08.2018 14:21
121 it Mailand Clear 26 1010 48 10000 6 0 02.08.2018 14:21
122 pg Port Moresby Clouds 25 1009 90 10000 21 148 02.08.2018 14:21
123 au Perth Clouds 18 1017 59 10000 9 10 02.08.2018 14:21
124 vn Hanoi Rain 33 1002 65 10000 7 148 02.08.2018 14:21
125 cn Shanghai Clear 37 1002 68 10000 22 150 02.08.2018 14:21
126 ad Andorra la Vella Clear 19 1013 55 10000 10 215 02.08.2018 14:22
127 de Freiburg Clouds 25 1006 44 10000 11 360 02.08.2018 14:22
128 ar Buenos Aires Clear 15 1014 89 10000 11 30 02.08.2018 14:22